GFSFLT2_250_spd_231.txt.gz
Wind_Speed
4 3 4 8 9 12 15 17 18 20 23 23 22 26 28 32 33 35 39 40 39 41 43 42 45 46 47 48 46 44 41 40
7 5 5 5 5 7 11 15 14 15 17 19 22 21 20 24 26 28 29 30 31 32 34 37 36 39 35 37 38 39 41 39
7 9 7 2 2 4 6 10 15 16 16 18 19 19 21 19 18 20 22 20 22 23 23 25 27 27 28 31 32 33 31 32
16 10 12 9 4 2 2 7 10 13 15 17 20 22 22 20 20 18 18 17 19 19 20 19 19 18 18 21 25 26 26 27
16 13 13 15 9 6 5 5 5 8 10 14 16 18 19 20 21 19 19 17 15 15 17 17 14 15 16 15 14 14 17 19
17 11 9 13 14 10 8 7 4 3 7 9 13 14 16 18 19 22 20 18 18 15 12 13 16 16 15 14 14 11 11 10
14 14 13 12 14 13 15 12 7 4 4 4 7 10 10 12 16 19 21 23 20 17 16 14 16 17 18 17 20 16 12 15
22 18 13 15 16 14 13 12 8 6 4 4 6 8 8 10 13 15 17 17 21 23 20 18 16 17 18 19 21 22 21 18
26 23 16 16 20 18 15 12 11 9 6 8 10 9 11 10 11 14 16 17 18 21 23 24 20 19 18 17 18 20 22 23
29 29 23 20 21 20 17 16 15 15 12 12 13 13 13 13 13 15 16 17 20 19 19 21 27 24 18 22 20 21 19 19
33 33 31 26 24 25 23 22 21 20 19 18 18 17 17 18 17 17 17 18 18 22 22 24 27 28 25 23 25 26 23 23
39 38 36 33 32 29 29 27 27 26 25 22 22 22 21 21 20 21 21 21 20 22 23 26 28 31 28 30 30 31 30 27
45 44 42 40 39 35 33 33 33 33 31 29 27 26 26 25 25 27 28 29 28 28 28 29 28 31 33 34 34 36 35 34
51 50 48 46 44 43 40 39 39 38 37 36 33 33 32 31 31 32 33 33 33 33 33 33 35 37 37 36 38 39 37 36
58 58 53 51 50 48 45 46 46 45 44 40 39 39 37 37 37 37 39 39 40 40 41 41 41 42 42 39 39 40 41 40
64 62 58 58 56 53 51 52 50 51 48 44 45 44 43 42 42 43 44 45 45 46 47 47 46 45 45 45 44 44 45 44
68 67 65 62 61 60 57 56 56 56 53 51 49 47 46 46 47 46 48 48 50 49 50 52 51 51 49 50 50 49 45 44
69 69 75 71 65 65 64 62 63 61 58 57 55 53 52 52 51 50 51 54 55 55 55 56 56 54 56 54 51 50 46 41
60 61 73 76 72 71 70 68 69 66 64 63 60 59 58 58 57 56 56 59 60 59 59 59 58 60 58 53 47 44 41 39
66 64 64 63 68 71 74 75 74 73 71 67 65 64 63 63 64 62 61 61 60 60 62 62 57 50 46 43 41 42 41 41

GFSFLT2_250_spd_237.txt.gz
Wind_Speed
8 3 2 6 8 12 15 17 20 22 24 26 28 30 31 28 28 30 31 34 35 37 36 35 36 41 41 40 40 41 39 38
10 4 3 3 6 5 9 12 14 18 20 24 26 27 28 28 27 27 27 26 27 28 29 31 30 30 31 32 32 31 31 33
13 8 7 6 7 7 4 7 8 11 14 17 20 23 26 29 29 28 26 24 23 23 24 24 24 25 27 25 27 27 25 26
16 14 10 14 11 10 6 6 4 5 8 11 14 17 19 22 24 26 28 29 28 25 22 22 21 20 19 15 14 18 16 15
23 20 17 15 14 12 10 7 6 1 4 7 9 12 14 17 20 22 24 24 25 26 24 22 24 22 17 17 17 17 19 16
24 24 20 16 11 13 13 11 9 6 3 2 4 6 9 11 13 16 18 20 21 23 24 22 21 20 20 19 19 18 16 16
23 25 25 19 12 11 14 13 13 13 9 6 4 3 5 7 10 11 12 14 16 17 18 19 20 19 20 20 21 21 19 19
24 24 22 18 17 11 14 14 16 17 15 13 6 4 4 6 9 11 12 12 13 14 13 15 18 19 20 20 20 21 21 20
25 27 28 25 21 16 14 13 14 13 12 13 8 7 8 9 9 10 12 13 14 15 17 17 18 19 21 23 24 24 24 24
32 28 27 24 24 21 17 16 12 11 15 15 13 11 11 13 13 12 13 13 14 15 18 18 18 21 22 23 25 27 27 27
40 33 31 30 28 26 23 20 18 17 17 18 19 18 17 17 17 17 17 17 18 19 19 20 21 22 22 22 24 25 28 28
46 40 37 34 32 31 29 25 25 24 24 24 23 23 23 23 23 22 22 22 22 23 24 25 26 27 27 29 29 29 31 32
52 48 46 42 39 36 33 30 31 32 30 30 28 27 28 30 29 29 28 28 28 29 29 30 31 32 31 32 34 35 35 34
54 55 52 48 47 44 39 36 36 37 38 34 32 32 33 34 33 33 35 35 35 35 36 37 37 37 35 37 38 40 45 44
45 52 57 56 54 49 45 43 43 43 43 41 38 39 40 40 39 39 39 40 40 39 39 41 41 41 40 40 43 44 47 45
48 51 50 55 60 55 51 49 48 51 48 47 45 44 46 45 44 45 45 45 45 45 44 45 45 46 45 46 48 48 49 50
60 55 54 54 52 59 58 55 56 57 54 52 51 50 50 50 50 51 51 50 50 50 49 49 50 51 50 50 52 52 50 45
69 64 61 62 54 49 51 61 62 61 61 58 57 55 55 55 58 57 56 55 55 55 55 55 55 55 57 56 53 52 49 40
76 70 65 66 64 57 56 54 57 62 64 62 62 61 60 61 62 61 60 60 59 58 60 60 61 61 58 54 48 44 40 36
83 75 70 68 65 64 63 62 58 56 54 57 62 64 65 66 67 65 63 62 63 62 59 56 55 52 48 45 39 36 34 33

GFSFLT2_250_spd_240.txt.gz
Wind_Speed
5 3 2 6 8 11 13 15 18 21 25 26 27 27 25 27 28 28 29 29 30 31 31 33 33 33 34 33 33 32 32 32
6 3 2 2 4 7 8 9 13 15 18 21 23 24 26 28 27 24 24 25 26 25 26 25 25 25 25 26 25 24 25 25
10 9 4 3 4 5 4 4 5 9 11 15 17 19 21 24 26 26 26 25 24 24 24 20 19 19 20 22 24 22 22 19
13 12 10 9 10 8 6 3 1 2 6 9 11 13 16 19 20 22 24 25 24 23 23 22 21 21 21 21 20 20 19 19
18 16 15 14 13 9 11 8 3 4 2 4 7 9 10 12 16 17 19 19 21 22 23 21 19 19 18 19 19 18 16 17
21 19 18 16 15 11 13 12 11 7 7 5 6 6 7 8 10 12 13 15 16 17 18 19 20 19 18 18 17 16 17 17
26 22 19 18 17 16 13 16 15 15 12 10 9 5 3 5 7 8 11 11 13 15 15 15 15 16 16 17 18 18 17 16
31 28 24 21 17 16 14 15 18 18 18 15 16 10 6 5 6 7 7 9 9 11 12 12 12 13 13 14 16 17 18 17
33 32 28 25 21 21 18 16 18 20 18 18 18 12 11 9 8 9 9 10 10 11 12 13 13 15 17 17 17 18 21 23
36 33 30 27 28 28 27 19 19 19 21 17 17 19 15 13 12 11 12 13 14 14 16 17 17 18 21 22 21 22 23 23
40 39 37 32 32 31 29 25 21 19 19 19 18 18 18 19 16 17 16 17 17 18 20 21 21 22 24 24 25 24 25 26
37 43 42 44 36 36 32 30 27 25 24 24 24 23 23 24 24 23 22 23 23 24 23 25 27 29 30 31 31 30 30 31
41 40 46 46 46 41 39 36 34 33 31 31 30 29 28 29 30 30 29 29 30 29 29 30 32 34 35 36 36 36 36 36
43 44 43 48 51 51 45 41 39 39 39 37 34 34 36 38 37 35 35 35 34 34 34 35 36 39 39 41 40 41 43 43
50 47 48 45 51 54 51 47 47 47 45 42 41 41 40 41 41 40 40 40 39 40 41 42 41 41 43 44 45 47 47 48
53 55 53 52 49 49 54 53 52 55 52 48 47 47 46 46 45 46 45 45 46 45 45 46 46 47 46 47 47 49 52 56
58 59 61 60 55 53 49 50 57 60 57 55 54 53 52 50 49 50 51 50 51 51 50 50 51 52 53 52 50 52 54 53
77 73 68 66 61 61 59 54 54 56 61 62 62 59 56 55 57 56 55 55 57 56 55 55 56 56 55 57 55 55 51 47
86 80 74 72 70 67 65 63 58 52 55 58 65 65 61 61 62 61 61 60 60 60 59 60 60 58 59 58 55 48 44 42
91 87 83 76 77 75 71 70 66 64 61 59 57 58 61 65 66 65 65 66 66 65 65 64 63 60 58 53 43 39 37 38

GFSFLT2_250_spd_246.txt.gz
Wind_Speed
8 4 5 5 7 10 10 14 17 21 23 25 28 30 31 31 31 30 32 31 31 31 32 34 34 33 34 35 32 31 31 31
10 9 4 5 5 6 7 9 12 14 17 20 23 25 27 28 29 30 29 29 29 29 29 27 27 28 27 24 24 22 22 22
11 11 12 8 6 7 6 4 7 9 12 13 15 18 20 22 25 26 28 27 27 26 26 27 26 26 24 23 22 20 19 18
15 13 15 15 12 8 8 6 3 5 5 8 11 12 14 16 18 20 22 22 23 24 25 24 23 23 23 22 20 19 19 18
19 18 16 18 18 15 11 8 8 5 5 1 4 7 8 9 11 13 14 16 17 18 18 18 17 17 17 16 15 14 14 14
20 21 20 19 19 21 16 12 12 12 9 7 4 2 3 3 5 7 9 9 10 11 12 12 12 13 14 15 16 16 15 14
20 22 23 23 20 20 20 18 13 15 16 13 11 9 6 4 3 1 2 4 6 7 8 9 11 11 12 14 15 16 18 18
21 20 22 26 25 22 21 21 20 18 19 19 17 15 13 11 9 7 5 3 3 4 6 7 10 13 13 14 17 18 20 21
28 23 26 27 28 28 25 24 23 22 22 23 21 20 19 19 16 13 11 9 8 8 8 9 11 13 16 17 18 20 22 25
35 33 31 29 29 30 30 27 27 26 25 23 23 24 23 23 23 20 18 15 14 13 12 13 15 16 18 20 22 23 24 26
43 38 36 34 30 30 31 32 30 30 30 29 29 28 27 28 28 27 24 21 20 20 20 18 18 20 21 23 25 27 28 30
46 42 41 40 33 36 31 32 33 34 33 34 34 34 32 31 32 33 34 31 28 27 25 23 23 24 25 27 28 29 29 32
52 50 49 49 43 39 42 37 31 37 37 38 39 38 37 33 34 35 34 34 34 32 30 30 29 30 30 32 32 32 32 36
61 57 57 55 52 50 45 37 30 36 41 43 45 43 39 38 38 39 39 38 37 36 36 36 34 35 36 36 36 37 37 40
67 68 63 63 61 53 49 44 34 34 45 49 49 44 44 43 44 43 43 43 42 41 41 41 39 41 40 41 41 42 41 43
76 73 67 68 69 57 55 49 44 48 50 48 48 48 50 51 50 49 49 49 48 46 45 47 45 45 44 45 47 48 48 48
83 84 78 71 70 68 61 61 59 60 55 52 49 50 53 56 56 54 53 53 54 54 52 50 50 51 51 51 52 53 55 55
91 86 85 84 76 72 69 67 68 63 59 57 58 55 52 54 57 58 59 59 58 58 57 57 58 58 58 58 58 57 59 56
98 93 87 83 85 80 76 73 76 73 68 64 62 59 57 57 57 58 58 61 63 63 62 63 64 63 63 62 63 63 63 61
104 99 96 92 88 87 85 84 82 81 74 70 68 66 61 63 59 61 60 61 61 62 64 67 71 71 70 68 66 68 68 65

GFSFLT2_250_spd_249.txt.gz
Wind_Speed
6 5 2 1 4 6 8 13 15 18 20 21 25 27 29 29 29 29 29 30 30 31 32 32 33 33 33 32 31 30 28 28
10 7 6 1 1 4 6 7 9 11 15 17 20 22 24 26 27 27 27 27 28 29 30 31 31 29 29 27 27 27 25 24
12 11 9 8 6 4 4 4 6 6 8 12 14 16 17 19 21 23 24 25 25 27 27 27 27 26 26 25 24 23 22 21
12 14 13 13 12 11 7 5 6 6 4 4 8 10 13 14 16 18 20 21 22 23 23 23 22 22 21 20 18 17 17 16
13 14 16 17 15 15 14 11 8 8 8 5 1 3 6 7 10 13 14 15 16 16 17 17 17 17 18 17 17 16 16 14
15 14 16 18 19 17 18 17 13 12 12 11 8 5 1 1 3 5 6 8 8 10 10 11 12 12 14 15 15 15 15 15
21 18 14 16 18 20 20 19 19 17 15 15 15 12 9 6 5 2 1 1 3 4 5 6 7 8 9 10 10 11 13 15
21 19 19 16 14 16 21 22 20 21 20 18 19 18 16 14 12 10 7 7 5 5 4 5 5 7 9 11 12 12 14 15
26 28 26 25 23 22 21 23 25 23 21 23 23 21 20 20 20 17 16 14 12 11 10 10 9 9 11 13 15 16 17 18
35 32 35 33 30 30 28 25 26 28 27 23 26 26 24 24 25 25 23 20 19 17 16 16 15 15 15 15 16 18 20 21
41 38 35 35 37 33 35 31 27 27 28 28 27 29 29 28 29 29 30 29 26 24 23 22 21 20 19 20 21 22 23 25
51 49 42 40 41 37 38 41 31 29 28 29 32 31 33 32 32 34 34 35 34 32 29 28 26 25 24 25 26 27 28 29
63 57 54 51 46 43 42 43 42 32 34 36 36 37 37 37 35 36 38 39 40 39 36 34 31 30 30 31 32 31 31 34
65 61 59 55 52 53 53 51 49 48 40 42 41 40 37 38 40 40 40 40 41 41 40 38 37 37 36 36 37 36 36 37
72 68 63 60 58 59 58 55 54 52 51 50 47 41 34 37 43 46 45 43 42 42 42 42 41 41 41 41 42 43 40 41
74 77 75 69 66 59 59 61 59 58 61 54 53 50 50 45 44 47 50 49 48 47 45 45 43 46 44 47 48 49 46 45
86 82 82 81 79 74 68 63 64 69 65 62 60 56 55 54 50 48 49 51 53 51 50 50 49 49 51 51 53 55 56 53
94 92 90 89 87 82 79 73 71 74 75 72 70 68 64 60 56 55 54 52 52 54 52 52 53 54 55 56 57 58 60 60
105 99 97 96 93 92 88 87 86 82 80 81 79 73 68 67 64 60 57 56 57 53 51 49 49 51 55 61 62 63 64 64
115 112 107 100 100 100 97 95 92 91 87 84 82 79 76 74 71 68 65 63 61 58 53 53 54 53 55 57 59 63 63 60

GFSFLT2_250_spd_252.txt.gz
Wind_Speed
5 6 5 4 3 5 8 10 11 13 16 19 20 22 23 24 25 25 26 27 28 29 32 32 31 31 31 30 30 30 29 28
5 6 6 4 2 2 3 5 6 7 11 12 15 16 18 20 22 22 23 24 27 28 29 28 28 28 28 28 27 27 27 26
13 9 9 8 9 7 3 3 3 4 5 7 9 11 14 16 18 20 21 21 22 23 23 24 24 25 24 25 24 23 22 21
15 15 12 11 11 12 11 8 6 5 5 4 3 5 7 10 12 13 16 17 18 20 21 22 22 22 22 22 21 20 18 17
11 14 15 15 14 13 14 14 13 10 8 8 7 4 1 3 6 7 9 11 13 14 16 16 17 18 18 18 18 17 16 16
13 13 17 17 16 16 16 15 16 16 14 13 12 11 8 4 1 1 2 4 6 7 9 10 10 11 12 12 12 11 11 11
19 16 15 14 12 14 16 17 18 16 19 19 18 16 15 12 9 6 5 4 1 1 2 4 4 5 6 6 7 7 9 10
26 22 18 16 13 13 14 15 17 20 19 21 22 22 21 19 16 14 12 11 8 7 6 5 4 4 4 4 6 7 9 10
31 29 26 23 22 20 20 21 19 19 23 23 23 25 27 26 24 22 20 18 16 14 13 12 11 11 10 9 9 10 11 12
41 37 34 31 30 28 27 26 24 24 22 25 28 27 28 30 30 28 26 26 24 22 20 19 18 17 17 16 15 14 15 16
47 45 41 40 40 37 34 32 30 31 28 29 26 29 30 30 33 34 33 32 31 30 28 27 25 24 22 22 21 20 20 20
53 50 51 47 45 46 41 41 41 37 36 30 28 28 29 34 35 35 36 36 36 35 36 35 34 32 29 26 26 25 25 26
57 56 60 58 55 50 50 50 49 45 41 39 38 36 34 35 35 38 38 37 38 39 40 41 39 38 36 32 32 31 30 32
64 62 59 57 60 61 58 56 53 50 46 46 48 45 43 39 39 40 40 40 40 40 41 43 46 45 43 40 40 38 37 37
76 71 70 65 63 62 61 64 62 58 56 60 60 55 49 43 42 41 44 46 46 45 45 43 43 45 47 45 45 43 39 41
84 82 79 76 75 68 63 62 64 67 66 66 64 61 59 54 47 46 44 45 46 45 47 47 45 45 46 47 46 45 45 45
82 85 89 87 81 82 76 69 71 72 71 71 70 70 66 65 59 53 53 53 52 48 45 44 45 46 50 50 51 52 52 50
92 89 84 87 89 89 87 84 82 81 81 78 74 75 73 69 69 64 58 58 60 58 51 48 45 44 44 47 48 49 53 48
106 103 102 96 95 92 93 96 94 91 89 87 86 84 80 76 76 74 69 64 64 61 56 54 55 48 46 49 46 44 48 47
124 115 111 110 106 106 106 103 102 100 97 96 92 92 89 85 82 78 74 74 71 67 62 58 60 52 50 51 47 50 52 54